Location: Stigler
(35.2540°N, 95.1230°W)
Time: 21:29:10
(UTC-05:00)

Daily predictions for brighter satellites

Satellite Brightness Start Highest point End
(mag) Time Altitude Azimuth Time Altitude Azimuth Time Altitude Azimuth
BREEZE-M DEB (TANK) 3.2 19:53:51 10° S 19:56:07 26° SE 20:00:39 10° ENE
SJ-6B 2.9 19:57:31 10° SSE 20:01:08 49° ENE 20:04:45 10° N
Cosmos 2123 Rocket 4.3 19:55:22 10° N 20:01:27 48° E 20:07:27 10° SSE
NOAA 12 4.1 19:56:43 10° SSE 20:02:01 85° ENE 20:07:20 10° NNW
Cosmos 2297 4.1 20:02:06 10° S 20:07:23 41° ESE 20:12:44 10° NE
H-2A R/B 3.7 20:06:27 10° SE 20:09:52 30° ENE 20:13:20 10° N
Resurs 1-3 4.4 20:11:18 10° SE 20:15:09 31° ENE 20:19:01 10° N
FengYun 1-2 T 4.4 20:10:36 10° SSE 20:16:02 57° ENE 20:21:32 10° N
Cosmos 1125 Rocket 3.6 20:11:47 10° S 20:16:46 50° ESE 20:21:49 10° NNE
CZ-3 Stage 3 4.5 19:06:36 10° WSW 20:21:14 75° S 20:29:16 13° E
Cosmos 2082 Rocket 3.1 20:18:36 10° N 20:23:34 30° ENE 20:27:53 13° ESE
SeaSat 1 2.6 20:19:53 10° SE 20:24:42 58° ENE 20:29:32 10° NNW
Geosat 4.4 20:20:05 10° NE 20:24:48 40° ESE 20:29:28 10° S
CZ-2C R/B 0.8 20:24:09 10° N 20:25:50 56° E 20:28:01 10° S
HJ-1C 3.3 20:23:46 10° SSE 20:27:08 76° E 20:30:33 10° N
Cosmos 1758 3.4 20:23:45 10° S 20:27:37 54° E 20:31:31 10° NNE
Meteor 1-24 Rocket 4.0 20:22:57 10° NNW 20:28:29 73° W 20:34:13 10° S
ALOS 2.3 20:24:39 10° SSE 20:29:20 90° SE 20:34:02 10° NNW
GPS 2-05 Rocket1 2.8 20:30:21 10° WSW 20:33:54 76° SSE 20:36:15 20° E
Cosmos 1953 2.3 20:30:44 10° S 20:34:44 61° E 20:38:45 10° NNE
Cosmos 1271 Rocket 3.7 20:31:52 10° SSE 20:35:18 28° E 20:38:47 10° NNE
SL-27 R/B 3.9 20:33:55 10° NNW 20:37:19 40° WSW 20:40:45 10° S
Helios 1B rocket 2.9 20:36:32 10° NNE 20:40:21 36° E 20:44:09 10° SSE
Cosmos 2173 Rocket 4.5 20:36:53 10° SSE 20:42:26 37° E 20:48:04 10° NNE
Okean 3 Rocket 3.5 20:38:12 10° N 20:42:38 88° E 20:47:03 10° S
SAR-Lupe-4 4.3 20:41:13 23° ESE 20:42:39 32° ENE 20:45:53 10° N
OAO 2 Rocket 4.4 20:38:46 10° SSW 20:43:11 29° SSE 20:45:21 21° ESE
Cosmos 1939 Rocket 4.5 20:44:14 18° ENE 20:44:20 18° ENE 20:47:11 10° NNE
IUS-7 SRM-1 4.4 20:44:18 10° S 20:45:19 13° SSE 20:45:19 13° SSE
Abrixas 2.8 20:43:34 10° NW 20:46:18 44° NE 20:46:58 36° ENE
Cosmos 1076 Rocket 3.4 20:42:37 10° N 20:46:49 60° E 20:50:59 10° SSE
Tiangong 1 2.3 20:44:49 10° W 20:47:29 31° SW 20:48:52 20° SSE
SWAS 4.3 20:43:38 10° SSW 20:47:53 71° ESE 20:52:11 10° NNE
Meteor 1-29 3.6 20:45:25 10° NNE 20:48:35 32° E 20:49:25 28° SE
Cosmos 1674 3.1 20:46:35 10° N 20:50:10 39° E 20:51:30 29° SE
CZ-4B DEB 4.3 20:52:56 21° NE 20:52:56 21° NE 20:54:40 10° NNE
Helios 1A 3.2 20:53:10 25° SE 20:55:14 47° ENE 20:59:15 10° N
COSMOS 2487 2.7 20:52:37 10° N 20:56:06 49° ENE 20:56:56 39° ESE
Delta 168 4.3 20:54:37 10° SW 20:57:14 17° S 20:57:52 17° S
Lacrosse 5 rocket 2.8 20:54:59 10° N 20:57:49 19° NE 20:58:14 19° NE
ISS -3.3 20:56:55 10° WSW 21:00:07 57° NW 21:02:04 21° NNE
SAR-Lupe-1 4.2 21:00:49 43° ESE 21:01:23 48° ENE 21:04:51 10° N
Cosmos 1818 3.5 20:56:02 10° NNW 21:01:30 89° ENE 21:05:08 21° SSE
USA 186 3.0 21:04:49 20° N 21:04:49 20° N 21:05:41 10° N
Cosmos 1269 Rocket 3.9 20:59:29 10° NNW 21:04:47 76° ENE 21:08:17 22° SSE
GP-B 3.0 21:01:21 10° S 21:05:46 75° E 21:10:12 10° N
Meteor 1-4 Rocket 4.0 21:03:44 10° SSW 21:06:58 37° W 21:10:14 10° N
CZ-2D R/B 3.5 21:03:33 11° S 21:07:16 68° WSW 21:11:09 10° NNW
Cosmos 1766 Rocket 3.5 21:03:47 10° N 21:08:17 77° E 21:11:01 23° SSE
H-II Stage 2 2.8 21:07:25 10° SW 21:08:29 20° SSW 21:08:29 20° SSW
Cosmos 372 Rocket 4.3 21:04:24 10° SSW 21:09:28 66° WNW 21:14:36 10° NNE
Cosmos-2242 2.8 21:06:37 10° S 21:10:51 87° E 21:15:07 10° N
Resurs 01 Rocket 2.7 21:09:21 10° S 21:13:33 44° W 21:17:47 10° NNW
Cosmos 2016 Rocket 4.1 21:08:23 10° SSE 21:14:20 49° E 21:20:14 10° NNE
Cosmos 158 Rocket 3.9 21:13:09 10° NNW 21:18:21 84° ENE 21:20:48 33° SSE
Aurora 2 Rocket 4.2 21:14:41 10° WSW 21:20:44 30° S 21:21:52 28° SSE
USA 215 3.1 21:15:23 10° NE 21:21:54 70° SE 21:28:24 10° SW
Cosmos 1725 Rocket 4.4 21:23:25 39° E 21:23:25 39° E 21:28:59 10° NNE
Cosmos 1470 3.4 21:25:00 10° SSW 21:28:54 55° W 21:32:49 10° N
Cosmos 1833 Rocket 2.7 21:23:57 10° NNW 21:29:36 82° WSW 21:31:55 37° SSE
Cosmos 2100 Rocket 4.1 21:25:30 10° S 21:31:47 76° W 21:38:11 10° N
Cosmos 1733 4.0 21:28:30 10° SSW 21:32:15 51° W 21:36:03 10° N
SL-08 R/B 4.5 21:33:42 37° SSE 21:36:12 63° E 21:42:32 10° NNE
Cosmos 1743 Rocket 3.7 21:35:09 10° N 21:38:55 62° NNE 21:38:55 62° NNE
ATLAS 5 CENTAUR R/B 3.3 21:37:09 10° WSW 21:41:25 35° NW 21:46:02 10° NNE
Cosmos 1340 Rocket 3.3 21:39:25 10° NNW 21:42:57 59° WNW 21:42:57 59° WNW
Tsikada Rocket 4.4 21:40:37 10° N 21:45:44 44° ENE 21:45:44 44° ENE
SJ-11-01 4.3 21:46:37 73° SW 21:46:53 76° WSW 21:51:37 10° NNW
Envisat 3.1 21:45:57 54° SSW 21:47:02 72° WSW 21:52:07 10° NNW
Cosmos 1802 Rocket 4.3 21:48:23 10° SSW 21:54:25 63° W 22:00:32 10° N
Gblst 52 Del rocket 4.1 21:49:29 10° SW 21:55:33 88° NW 21:55:48 82° NNE
H-2A R/B 4.3 22:02:14 14° NNE 22:02:14 14° NNE 22:03:15 10° NNE
ERS-1 Rocket 3.5 22:03:19 51° N 22:03:19 51° N 22:07:05 10° N
Cosmos 2082 Rocket 3.6 22:02:36 10° NW 22:07:35 32° WSW 22:09:47 24° SW
Lacrosse 5 rocket 4.4 22:33:37 10° NW 22:33:58 12° WNW 22:33:58 12° WNW
